ALPHASAT

Last updated on Sun Apr 12 2026 00:02:53 GMT+0000 (Coordinated Universal Time)

1 39215U 13038A 26101.24043588 .00000137 00000+0 00000+0 0 9998 2 39215 2.9894 1.9143 0002224 54.6125 254.3754 1.00271921 43342
UTC large
Height (km)
Speed (km/s)
/
Latitude / Longitude
Inclination (degrees)
Orbital Period (minutes)
Azimuth
Elevation
Range (km)
Doppler Factor

Next 0 passes for location: London (51.5072 / 0.1276)

Sorry there are no passes over London.
ALPHASAT